Year,Month,Day,Hour,Minute,Value (Times are PST for temperature in C)
2011,05,03,07,22,7.10
2011,05,03,07,23,7.20
2011,05,03,07,24,7.20
2011,05,03,07,25,7.30
2011,05,03,07,26,7.40
2011,05,03,07,27,7.50
2011,05,03,07,28,7.60
2011,05,03,07,29,7.70
2011,05,03,07,30,7.90
2011,05,03,07,31,8.00
2011,05,03,07,32,8.10
2011,05,03,07,33,8.20
2011,05,03,07,34,8.30
2011,05,03,07,35,8.50
2011,05,03,07,36,8.70
2011,05,03,07,37,8.80
2011,05,03,07,38,8.90
2011,05,03,07,39,9.10
2011,05,03,07,40,9.20
2011,05,03,07,41,9.30
2011,05,03,07,42,9.40
2011,05,03,07,43,9.50
2011,05,03,07,44,9.70
2011,05,03,07,45,9.80
2011,05,03,07,46,9.90
2011,05,03,07,47,10.10
2011,05,03,07,48,10.10
2011,05,03,07,49,10.20
2011,05,03,07,50,10.20
2011,05,03,07,51,10.20
2011,05,03,07,52,10.20
2011,05,03,07,53,10.30
2011,05,03,07,54,10.30
2011,05,03,07,55,10.40
2011,05,03,07,56,10.40
2011,05,03,07,57,10.40
2011,05,03,07,58,10.40
2011,05,03,07,59,10.40
2011,05,03,08,00,10.40
2011,05,03,08,01,10.40
2011,05,03,08,02,10.40
2011,05,03,08,03,10.40
2011,05,03,08,04,10.40
2011,05,03,08,05,10.40
2011,05,03,08,06,10.40
2011,05,03,08,07,10.40
2011,05,03,08,08,10.40
2011,05,03,08,09,10.40
2011,05,03,08,10,10.40
2011,05,03,08,11,10.30
2011,05,03,08,12,10.30
2011,05,03,08,13,10.30
2011,05,03,08,14,10.30
2011,05,03,08,15,10.30
2011,05,03,08,16,10.30
2011,05,03,08,17,10.30
2011,05,03,08,18,10.30
2011,05,03,08,19,10.30
2011,05,03,08,20,10.40
2011,05,03,08,21,10.40
2011,05,03,08,22,10.40
2011,05,03,08,23,10.50
2011,05,03,08,24,10.50
2011,05,03,08,25,10.60
2011,05,03,08,26,10.60
2011,05,03,08,27,10.60
2011,05,03,08,28,10.60
2011,05,03,08,29,10.60
2011,05,03,08,30,10.50
2011,05,03,08,31,10.50
2011,05,03,08,32,10.50
2011,05,03,08,33,10.50
2011,05,03,08,34,10.50
2011,05,03,08,35,10.60
2011,05,03,08,36,10.60
2011,05,03,08,37,10.60
2011,05,03,08,38,10.50
2011,05,03,08,39,10.50
2011,05,03,08,40,10.50
2011,05,03,08,41,10.50
2011,05,03,08,42,10.50
2011,05,03,08,43,10.50
2011,05,03,08,44,10.50
2011,05,03,08,45,10.50
2011,05,03,08,46,10.60
2011,05,03,08,47,10.60
2011,05,03,08,48,10.60
2011,05,03,08,49,10.60
2011,05,03,08,50,10.70
2011,05,03,08,51,10.70
2011,05,03,08,52,10.80
2011,05,03,08,53,10.80
2011,05,03,08,54,10.80
2011,05,03,08,55,10.80
2011,05,03,08,56,10.80
2011,05,03,08,57,10.80
2011,05,03,08,58,10.90
2011,05,03,08,59,10.90
2011,05,03,09,00,11.00
2011,05,03,09,01,11.00
2011,05,03,09,02,11.10
2011,05,03,09,03,11.10
2011,05,03,09,04,11.10
2011,05,03,09,05,11.10
2011,05,03,09,06,11.10
2011,05,03,09,07,11.10
2011,05,03,09,08,11.10
2011,05,03,09,09,11.10
2011,05,03,09,10,11.10
2011,05,03,09,11,11.10
2011,05,03,09,12,11.10
2011,05,03,09,13,11.10
2011,05,03,09,14,11.10
2011,05,03,09,15,11.10
2011,05,03,09,16,11.10
2011,05,03,09,17,11.10
2011,05,03,09,18,11.10
2011,05,03,09,19,11.10
2011,05,03,09,20,11.10
2011,05,03,09,21,11.10
2011,05,03,09,22,11.00
2011,05,03,09,23,10.90
2011,05,03,09,24,10.90
2011,05,03,09,25,11.00
2011,05,03,09,26,11.00
2011,05,03,09,27,11.00
2011,05,03,09,28,10.90
2011,05,03,09,29,10.90
2011,05,03,09,30,10.90
2011,05,03,09,31,10.90
2011,05,03,09,32,10.90
2011,05,03,09,33,10.90
2011,05,03,09,34,10.90
2011,05,03,09,35,10.80
2011,05,03,09,36,10.80
2011,05,03,09,37,10.80
2011,05,03,09,38,10.80
2011,05,03,09,39,10.80
2011,05,03,09,40,10.90
2011,05,03,09,41,10.90
2011,05,03,09,42,10.90
2011,05,03,09,43,10.90
2011,05,03,09,44,11.00
2011,05,03,09,45,11.00
2011,05,03,09,46,11.00
2011,05,03,09,47,11.00
2011,05,03,09,48,11.10
2011,05,03,09,49,11.20
2011,05,03,09,50,11.20
2011,05,03,09,51,11.20
2011,05,03,09,52,11.20
2011,05,03,09,53,11.20
2011,05,03,09,54,11.20
2011,05,03,09,55,11.10
2011,05,03,09,56,11.10
2011,05,03,09,57,11.10
2011,05,03,09,58,11.10
2011,05,03,09,59,11.10
2011,05,03,10,00,11.20
2011,05,03,10,01,11.20
2011,05,03,10,02,11.20
2011,05,03,10,03,11.20
2011,05,03,10,04,11.10
2011,05,03,10,05,11.10
2011,05,03,10,06,11.10
2011,05,03,10,07,11.10
2011,05,03,10,08,11.10
2011,05,03,10,09,11.10
2011,05,03,10,10,11.10
2011,05,03,10,11,11.00
2011,05,03,10,12,11.00
2011,05,03,10,13,11.00
2011,05,03,10,14,10.90
2011,05,03,10,15,10.90
2011,05,03,10,16,10.90
2011,05,03,10,17,10.90
2011,05,03,10,18,11.00
2011,05,03,10,19,10.90
2011,05,03,10,20,10.90
2011,05,03,10,21,10.90
2011,05,03,10,22,10.90
2011,05,03,10,23,11.00
2011,05,03,10,24,11.00
2011,05,03,10,25,11.00
2011,05,03,10,26,10.90
2011,05,03,10,27,10.90
2011,05,03,10,28,10.80
2011,05,03,10,29,10.80
2011,05,03,10,30,10.80
2011,05,03,10,31,10.80
2011,05,03,10,32,10.90
2011,05,03,10,33,10.90
2011,05,03,10,34,10.90
2011,05,03,10,35,10.80
2011,05,03,10,36,10.80
2011,05,03,10,37,10.70
2011,05,03,10,38,10.60
2011,05,03,10,39,10.60
2011,05,03,10,40,10.60
2011,05,03,10,41,10.70
2011,05,03,10,42,10.70
2011,05,03,10,43,10.80
2011,05,03,10,44,10.80
2011,05,03,10,45,10.70
2011,05,03,10,46,10.70
2011,05,03,10,47,10.60
2011,05,03,10,48,10.60
2011,05,03,10,49,10.60
2011,05,03,10,50,10.60
2011,05,03,10,51,10.60
2011,05,03,10,52,10.70
2011,05,03,10,53,10.70
2011,05,03,10,54,10.80
2011,05,03,10,55,10.80
2011,05,03,10,56,10.70
2011,05,03,10,57,10.70
2011,05,03,10,58,10.70
2011,05,03,10,59,10.70
2011,05,03,11,00,10.80
2011,05,03,11,01,10.70
2011,05,03,11,02,10.70
2011,05,03,11,03,10.70
2011,05,03,11,04,10.70
2011,05,03,11,05,10.70
2011,05,03,11,06,10.70
2011,05,03,11,07,10.70
2011,05,03,11,08,10.70
2011,05,03,11,09,10.70
2011,05,03,11,10,10.70
2011,05,03,11,11,10.70
2011,05,03,11,12,10.70
2011,05,03,11,13,10.70
2011,05,03,11,14,10.60
2011,05,03,11,15,10.70
2011,05,03,11,16,10.70
2011,05,03,11,17,10.80
2011,05,03,11,18,10.80
2011,05,03,11,19,10.80
2011,05,03,11,20,10.80
2011,05,03,11,21,10.80
2011,05,03,11,22,10.80
2011,05,03,11,23,10.80
2011,05,03,11,24,10.80
2011,05,03,11,25,10.80
2011,05,03,11,26,10.80
2011,05,03,11,27,10.70
2011,05,03,11,28,10.70
2011,05,03,11,29,10.70
2011,05,03,11,30,10.70
2011,05,03,11,31,10.70
2011,05,03,11,32,10.70
2011,05,03,11,33,10.80
2011,05,03,11,34,10.80
2011,05,03,11,35,10.80
2011,05,03,11,36,10.70
2011,05,03,11,37,10.70
2011,05,03,11,38,10.70
2011,05,03,11,39,10.70
2011,05,03,11,40,10.70
2011,05,03,11,41,10.70
2011,05,03,11,42,10.70
2011,05,03,11,43,10.70
2011,05,03,11,44,10.70
2011,05,03,11,45,10.70
2011,05,03,11,46,10.70
2011,05,03,11,47,10.80
2011,05,03,11,48,10.80
2011,05,03,11,49,10.80
2011,05,03,11,50,10.80
2011,05,03,11,51,10.80
2011,05,03,11,52,10.80
2011,05,03,11,53,10.80
2011,05,03,11,54,10.80
2011,05,03,11,55,10.90
2011,05,03,11,56,10.90
2011,05,03,11,57,11.00
2011,05,03,11,58,11.10
2011,05,03,11,59,11.10
2011,05,03,12,00,11.10
2011,05,03,12,01,11.10
2011,05,03,12,02,11.10
2011,05,03,12,03,11.10
2011,05,03,12,04,11.10
2011,05,03,12,05,11.10
2011,05,03,12,06,11.10
2011,05,03,12,07,11.10
2011,05,03,12,08,11.20
2011,05,03,12,09,11.30
2011,05,03,12,10,11.40
2011,05,03,12,11,11.40
2011,05,03,12,12,11.40
2011,05,03,12,13,11.40
2011,05,03,12,14,11.40
2011,05,03,12,15,11.30
2011,05,03,12,16,11.30
2011,05,03,12,17,11.20
2011,05,03,12,18,11.10
2011,05,03,12,19,11.10
2011,05,03,12,20,11.10
2011,05,03,12,21,11.10
2011,05,03,12,22,11.10
2011,05,03,12,23,11.10
2011,05,03,12,24,11.10
2011,05,03,12,25,11.10
2011,05,03,12,26,11.10
2011,05,03,12,27,11.10
2011,05,03,12,28,11.00
2011,05,03,12,29,10.90
2011,05,03,12,30,10.80
2011,05,03,12,31,10.70
2011,05,03,12,32,10.80
2011,05,03,12,33,10.80
2011,05,03,12,34,10.80
2011,05,03,12,35,10.80
2011,05,03,12,36,10.80
2011,05,03,12,37,10.90
2011,05,03,12,38,11.00
2011,05,03,12,39,11.00
2011,05,03,12,40,11.10
2011,05,03,12,41,11.10
2011,05,03,12,42,11.10
2011,05,03,12,43,11.10
2011,05,03,12,44,11.10
2011,05,03,12,45,11.10
2011,05,03,12,46,11.20
2011,05,03,12,47,11.20
2011,05,03,12,48,11.20
2011,05,03,12,49,11.30
2011,05,03,12,50,11.30
2011,05,03,12,51,11.30
2011,05,03,12,52,11.30
2011,05,03,12,53,11.30
2011,05,03,12,54,11.30
2011,05,03,12,55,11.20
2011,05,03,12,56,11.20
2011,05,03,12,57,11.20
2011,05,03,12,58,11.30
2011,05,03,12,59,11.40
2011,05,03,13,00,11.40
2011,05,03,13,01,11.40
2011,05,03,13,02,11.40
2011,05,03,13,03,11.40
2011,05,03,13,04,11.40
2011,05,03,13,05,11.50
2011,05,03,13,06,11.50
2011,05,03,13,07,11.60
2011,05,03,13,08,11.60
2011,05,03,13,09,11.70
2011,05,03,13,10,11.70
2011,05,03,13,11,11.70
2011,05,03,13,12,11.70
2011,05,03,13,13,11.80
2011,05,03,13,14,11.80
2011,05,03,13,15,11.80
2011,05,03,13,16,11.80
2011,05,03,13,17,11.80
2011,05,03,13,18,11.80
2011,05,03,13,19,11.80
2011,05,03,13,20,11.80
2011,05,03,13,21,11.80
2011,05,03,13,22,11.90
2011,05,03,13,23,11.90
2011,05,03,13,24,11.90
2011,05,03,13,25,11.90
2011,05,03,13,26,11.90
2011,05,03,13,27,11.90
2011,05,03,13,28,11.90
2011,05,03,13,29,11.80
2011,05,03,13,30,11.80
2011,05,03,13,31,11.80
2011,05,03,13,32,11.70
2011,05,03,13,33,11.70
2011,05,03,13,34,11.60
2011,05,03,13,35,11.60
2011,05,03,13,36,11.50
2011,05,03,13,37,11.50
2011,05,03,13,38,11.40
2011,05,03,13,39,11.40
2011,05,03,13,40,11.40
2011,05,03,13,41,11.50
2011,05,03,13,42,11.50
2011,05,03,13,43,11.50
2011,05,03,13,44,11.50
2011,05,03,13,45,11.60
2011,05,03,13,46,11.60
2011,05,03,13,47,11.70
2011,05,03,13,48,11.80
2011,05,03,13,49,11.80
2011,05,03,13,50,11.80
2011,05,03,13,51,11.90
2011,05,03,13,52,11.90
2011,05,03,13,53,11.90
2011,05,03,13,54,12.00
2011,05,03,13,55,12.10
2011,05,03,13,56,12.10
2011,05,03,13,57,12.20
2011,05,03,13,58,12.20
2011,05,03,13,59,12.20
2011,05,03,14,00,12.10
2011,05,03,14,01,12.00
2011,05,03,14,02,12.00
2011,05,03,14,03,11.90
2011,05,03,14,04,11.90
2011,05,03,14,05,11.80
2011,05,03,14,06,11.80
2011,05,03,14,07,11.80
2011,05,03,14,08,11.80
2011,05,03,14,09,11.90
2011,05,03,14,10,11.90
2011,05,03,14,11,11.90
2011,05,03,14,12,11.90
2011,05,03,14,13,11.80
2011,05,03,14,14,11.80
2011,05,03,14,15,11.80
2011,05,03,14,16,11.70
2011,05,03,14,17,11.60
2011,05,03,14,18,11.60
2011,05,03,14,19,11.60
2011,05,03,14,20,11.60
2011,05,03,14,21,11.60
2011,05,03,14,22,11.60
2011,05,03,14,23,11.60
2011,05,03,14,24,11.60
2011,05,03,14,25,11.60
2011,05,03,14,26,11.60
2011,05,03,14,27,11.60
2011,05,03,14,28,11.60
2011,05,03,14,29,11.60
2011,05,03,14,30,11.60
2011,05,03,14,31,11.50
2011,05,03,14,32,11.50
2011,05,03,14,33,11.50
2011,05,03,14,34,11.40
2011,05,03,14,35,11.40
2011,05,03,14,36,11.40
2011,05,03,14,37,11.40
2011,05,03,14,38,11.30
2011,05,03,14,39,11.30
2011,05,03,14,40,11.30
2011,05,03,14,41,11.40
2011,05,03,14,42,11.40
2011,05,03,14,43,11.40
2011,05,03,14,44,11.40
2011,05,03,14,45,11.40
2011,05,03,14,46,11.40
2011,05,03,14,47,11.40
2011,05,03,14,48,11.40
2011,05,03,14,49,11.40
2011,05,03,14,50,11.40
2011,05,03,14,51,11.40
2011,05,03,14,52,11.40
2011,05,03,14,53,11.40
2011,05,03,14,54,11.40
2011,05,03,14,55,11.40
2011,05,03,14,56,11.50
2011,05,03,14,57,11.50
2011,05,03,14,58,11.50
2011,05,03,14,59,11.50
2011,05,03,15,00,11.40
2011,05,03,15,01,11.40
2011,05,03,15,02,11.50
2011,05,03,15,03,11.50
2011,05,03,15,04,11.50
2011,05,03,15,05,11.50
2011,05,03,15,06,11.60
2011,05,03,15,07,11.50
2011,05,03,15,08,11.50
2011,05,03,15,09,11.60
2011,05,03,15,10,11.60
2011,05,03,15,11,11.60
2011,05,03,15,12,11.60
2011,05,03,15,13,11.60
2011,05,03,15,14,11.70
2011,05,03,15,15,11.70
2011,05,03,15,16,11.70
2011,05,03,15,17,11.70
2011,05,03,15,18,11.60
2011,05,03,15,19,11.60
2011,05,03,15,20,11.60
2011,05,03,15,21,11.60
2011,05,03,15,22,11.50
2011,05,03,15,23,11.50
2011,05,03,15,24,11.50
2011,05,03,15,25,11.40
2011,05,03,15,26,11.40
2011,05,03,15,27,11.40
2011,05,03,15,28,11.40
2011,05,03,15,29,11.30
2011,05,03,15,30,11.30
2011,05,03,15,31,11.30
2011,05,03,15,32,11.30
2011,05,03,15,33,11.30
2011,05,03,15,34,11.40
2011,05,03,15,35,11.40
2011,05,03,15,36,11.40
2011,05,03,15,37,11.40
2011,05,03,15,38,11.50
2011,05,03,15,39,11.50
2011,05,03,15,40,11.60
2011,05,03,15,41,11.60
2011,05,03,15,42,11.70
2011,05,03,15,43,11.80
2011,05,03,15,44,11.80
2011,05,03,15,45,11.80
2011,05,03,15,46,11.70
2011,05,03,15,47,11.70
2011,05,03,15,48,11.70
2011,05,03,15,49,11.70
2011,05,03,15,50,11.60
2011,05,03,15,51,11.60
2011,05,03,15,52,11.60
2011,05,03,15,53,11.60
2011,05,03,15,54,11.60
2011,05,03,15,55,11.60
2011,05,03,15,56,11.60
2011,05,03,15,57,11.70
2011,05,03,15,58,11.80
2011,05,03,15,59,11.90
2011,05,03,16,00,11.90
2011,05,03,16,01,12.00
2011,05,03,16,02,12.00
2011,05,03,16,03,12.10
2011,05,03,16,04,12.10
2011,05,03,16,05,12.20
2011,05,03,16,06,12.20
2011,05,03,16,07,12.20
2011,05,03,16,08,12.20
2011,05,03,16,09,12.30
2011,05,03,16,10,12.30
2011,05,03,16,11,12.30
2011,05,03,16,12,12.30
2011,05,03,16,13,12.30
2011,05,03,16,14,12.30
2011,05,03,16,15,12.40
2011,05,03,16,16,12.40
2011,05,03,16,17,12.40
2011,05,03,16,18,12.40
2011,05,03,16,19,12.30
2011,05,03,16,20,12.40
2011,05,03,16,21,12.40
2011,05,03,16,22,12.40
2011,05,03,16,23,12.40
2011,05,03,16,24,12.40
2011,05,03,16,25,12.40
2011,05,03,16,26,12.50
2011,05,03,16,27,12.50
2011,05,03,16,28,12.60
2011,05,03,16,29,12.70
2011,05,03,16,30,12.80
2011,05,03,16,31,12.80
2011,05,03,16,32,12.80
2011,05,03,16,33,12.80
2011,05,03,16,34,12.90
2011,05,03,16,35,12.90
2011,05,03,16,36,12.90
2011,05,03,16,37,12.90
2011,05,03,16,38,12.90
2011,05,03,16,39,13.00
2011,05,03,16,40,13.00
2011,05,03,16,41,13.00
2011,05,03,16,42,12.90
2011,05,03,16,43,12.90
2011,05,03,16,44,12.80
2011,05,03,16,45,12.80
2011,05,03,16,46,12.70
2011,05,03,16,47,12.70
2011,05,03,16,48,12.60
2011,05,03,16,49,12.50
2011,05,03,16,50,12.50
2011,05,03,16,51,12.40
2011,05,03,16,52,12.40
2011,05,03,16,53,12.30
2011,05,03,16,54,12.30
2011,05,03,16,55,12.30
2011,05,03,16,56,12.30
2011,05,03,16,57,12.20
2011,05,03,16,58,12.20
2011,05,03,16,59,12.20
2011,05,03,17,00,12.20
2011,05,03,17,01,12.20
2011,05,03,17,02,12.10
2011,05,03,17,03,12.10
2011,05,03,17,04,12.20
2011,05,03,17,05,12.20
2011,05,03,17,06,12.20
2011,05,03,17,07,12.20
2011,05,03,17,08,12.20
2011,05,03,17,09,12.20
2011,05,03,17,10,12.20
2011,05,03,17,11,12.20
2011,05,03,17,12,12.30
2011,05,03,17,13,12.30
2011,05,03,17,14,12.30
2011,05,03,17,15,12.30
2011,05,03,17,16,12.30
2011,05,03,17,17,12.30
2011,05,03,17,18,12.30
2011,05,03,17,19,12.30
2011,05,03,17,20,12.30
2011,05,03,17,21,12.40
2011,05,03,17,22,12.50
2011,05,03,17,23,12.50
2011,05,03,17,24,12.60
2011,05,03,17,25,12.60
2011,05,03,17,26,12.60
2011,05,03,17,27,12.60
2011,05,03,17,28,12.60
2011,05,03,17,29,12.60
2011,05,03,17,30,12.50
2011,05,03,17,31,12.50
2011,05,03,17,32,12.40
2011,05,03,17,33,12.30
2011,05,03,17,34,12.30
2011,05,03,17,35,12.30
2011,05,03,17,36,12.30
2011,05,03,17,37,12.30
2011,05,03,17,38,12.30
2011,05,03,17,39,12.30
2011,05,03,17,40,12.40
2011,05,03,17,41,12.40
2011,05,03,17,42,12.40
2011,05,03,17,43,12.40
2011,05,03,17,44,12.50
2011,05,03,17,45,12.50
2011,05,03,17,46,12.50
2011,05,03,17,47,12.50
2011,05,03,17,48,12.50
2011,05,03,17,49,12.60
2011,05,03,17,50,12.60
2011,05,03,17,51,12.60
2011,05,03,17,52,12.70
2011,05,03,17,53,12.80
2011,05,03,17,54,12.80
2011,05,03,17,55,12.80
2011,05,03,17,56,12.90
2011,05,03,17,57,12.90
2011,05,03,17,58,12.90
2011,05,03,17,59,12.80
2011,05,03,18,00,12.80
2011,05,03,18,01,12.80
2011,05,03,18,02,12.80
2011,05,03,18,03,12.80
2011,05,03,18,04,12.80
2011,05,03,18,05,12.80
2011,05,03,18,06,12.80
2011,05,03,18,07,12.80
2011,05,03,18,08,12.80
2011,05,03,18,09,12.80
2011,05,03,18,10,12.90
2011,05,03,18,11,12.90
2011,05,03,18,12,12.90
2011,05,03,18,13,12.90
2011,05,03,18,14,12.90
2011,05,03,18,15,12.90
2011,05,03,18,16,12.90
2011,05,03,18,17,12.90
2011,05,03,18,18,12.90
2011,05,03,18,19,12.90
2011,05,03,18,20,12.80
2011,05,03,18,21,12.80
2011,05,03,18,22,12.80
2011,05,03,18,23,12.80
2011,05,03,18,24,12.90
2011,05,03,18,25,12.90
2011,05,03,18,26,12.90
2011,05,03,18,27,12.90
2011,05,03,18,28,12.90
2011,05,03,18,29,12.90
2011,05,03,18,30,12.90
2011,05,03,18,31,12.90
2011,05,03,18,32,12.90
2011,05,03,18,33,12.90
2011,05,03,18,34,12.90
2011,05,03,18,35,12.90
2011,05,03,18,36,12.90
2011,05,03,18,37,12.80
2011,05,03,18,38,12.80
2011,05,03,18,39,12.80
2011,05,03,18,40,12.80
2011,05,03,18,41,12.80
2011,05,03,18,42,12.80
2011,05,03,18,43,12.80
2011,05,03,18,44,12.80
2011,05,03,18,45,12.80
2011,05,03,18,46,12.70
2011,05,03,18,47,12.70
2011,05,03,18,48,12.70
2011,05,03,18,49,12.70
2011,05,03,18,50,12.70
2011,05,03,18,51,12.70
2011,05,03,18,52,12.70
2011,05,03,18,53,12.70
2011,05,03,18,54,12.70
2011,05,03,18,55,12.70
2011,05,03,18,56,12.70
2011,05,03,18,57,12.80
2011,05,03,18,58,12.80
2011,05,03,18,59,12.70
2011,05,03,19,00,12.70
2011,05,03,19,01,12.70
2011,05,03,19,02,12.70
2011,05,03,19,03,12.70
2011,05,03,19,04,12.70
2011,05,03,19,05,12.70
2011,05,03,19,06,12.70
2011,05,03,19,07,12.70
2011,05,03,19,08,12.70
2011,05,03,19,09,12.70
2011,05,03,19,10,12.60
2011,05,03,19,11,12.60
2011,05,03,19,12,12.60
2011,05,03,19,13,12.60
2011,05,03,19,14,12.60
2011,05,03,19,15,12.60
2011,05,03,19,16,12.60
2011,05,03,19,17,12.60
2011,05,03,19,18,12.60
2011,05,03,19,19,12.60
2011,05,03,19,20,12.60
